,,PA_Meas_PMT16A,,PR_Meas_QMR101_102,,RH_Meas_QMH101,,SR_Meas_QMS101,,TA_Meas_QMH101,,GenWind,,GenWind,
time,status,PA,status,PR,status,RH,status,SR,status,TA,status,DirAvg,status,SpdAvg,
2012-02-29, 00:00:05,VALID,915.656,VALID,0,VALID,97.7093,VALID,0.107441,VALID,19.3698,VALID,9,VALID,1.37969,
2012-02-29, 00:01:05,VALID,915.67,VALID,0,VALID,97.7169,VALID,0,VALID,19.4088,VALID,10,VALID,0.980469,
2012-02-29, 00:02:05,VALID,915.697,VALID,0,VALID,97.7169,VALID,0,VALID,19.3698,VALID,358,VALID,1.67813,
2012-02-29, 00:03:05,VALID,915.725,VALID,0,VALID,97.7169,VALID,0,VALID,19.4103,VALID,27,VALID,1.42969,
2012-02-29, 00:04:05,VALID,915.739,VALID,0,VALID,97.7246,VALID,0.107441,VALID,19.4088,VALID,12,VALID,1.70117,
2012-02-29, 00:05:05,VALID,915.786,VALID,0,VALID,97.7322,VALID,0,VALID,19.3893,VALID,9,VALID,2.0293,
2012-02-29, 00:06:05,VALID,915.819,VALID,0,VALID,97.7322,VALID,0,VALID,19.4088,VALID,8,VALID,1.23047,
2012-02-29, 00:07:05,VALID,915.812,VALID,0,VALID,97.7398,VALID,0,VALID,19.4298,VALID,8,VALID,1.23242,
2012-02-29, 00:08:05,VALID,915.816,VALID,0,VALID,97.7398,VALID,0,VALID,19.4103,VALID,11,VALID,1.36992,
2012-02-29, 00:09:05,VALID,915.862,VALID,0,VALID,97.7093,VALID,0,VALID,19.3893,VALID,354,VALID,2.27891,
2012-02-29, 00:10:05,VALID,915.908,VALID,0,VALID,97.7246,VALID,0,VALID,19.3503,VALID,23,VALID,1.75469,
2012-02-29, 00:11:05,VALID,915.904,VALID,0,VALID,97.7246,VALID,0,VALID,19.4103,VALID,341,VALID,0.960156,
2012-02-29, 00:12:05,VALID,915.905,VALID,0,VALID,97.7322,VALID,0.107441,VALID,19.3893,VALID,2,VALID,1.19922,
2012-02-29, 00:13:05,VALID,915.896,VALID,0,VALID,97.7169,VALID,0.107441,VALID,19.3908,VALID,17,VALID,1.44687,
2012-02-29, 00:14:05,VALID,915.89,VALID,0,VALID,97.7246,VALID,0,VALID,19.3533,VALID,2,VALID,0.877344,
2012-02-29, 00:15:05,VALID,915.901,VALID,0,VALID,97.7322,VALID,0,VALID,19.3728,VALID,12,VALID,0.788281,
2012-02-29, 00:16:05,VALID,915.931,VALID,0,VALID,97.7169,VALID,0,VALID,19.3518,VALID,11,VALID,1.21484,
2012-02-29, 00:17:05,VALID,915.897,VALID,0,VALID,97.7474,VALID,0,VALID,19.3728,VALID,11,VALID,0.952734,
2012-02-29, 00:18:05,VALID,915.916,VALID,0,VALID,97.7322,VALID,0,VALID,19.3518,VALID,9,VALID,0.877734,
2012-02-29, 00:19:05,VALID,915.884,VALID,0,VALID,97.7398,VALID,0,VALID,19.3323,VALID,5,VALID,1.68203,
2012-02-29, 00:20:05,VALID,915.907,VALID,0,VALID,97.7398,VALID,0,VALID,19.3323,VALID,353,VALID,1.42813,
2012-02-29, 00:21:05,VALID,915.953,VALID,0,VALID,97.7322,VALID,0,VALID,19.3323,VALID,345,VALID,1.38828,
2012-02-29, 00:22:05,VALID,915.913,VALID,0,VALID,97.7322,VALID,0,VALID,19.3323,VALID,5,VALID,0.841016,
2012-02-29, 00:23:05,VALID,915.905,VALID,0,VALID,97.7398,VALID,0,VALID,19.3728,VALID,10,VALID,0.808203,
2012-02-29, 00:24:05,VALID,915.882,VALID,0,VALID,97.7398,VALID,0,VALID,19.3323,VALID,295,VALID,0.64375,
2012-02-29, 00:25:05,VALID,915.864,VALID,0.2,VALID,97.7551,VALID,0,VALID,19.3323,VALID,358,VALID,0.668359,
2012-02-29, 00:26:05,VALID,915.888,VALID,0,VALID,97.7551,VALID,0,VALID,19.3923,VALID,358,VALID,0.965625,
2012-02-29, 00:27:05,VALID,915.841,VALID,0,VALID,97.7474,VALID,0,VALID,19.4298,VALID,358,VALID,0.940234,
2012-02-29, 00:28:05,VALID,915.847,VALID,0,VALID,97.7627,VALID,0,VALID,19.4493,VALID,358,VALID,1.22305,
2012-02-29, 00:29:05,VALID,915.843,VALID,0.2,VALID,97.7474,VALID,0,VALID,19.4313,VALID,358,VALID,1.02813,
2012-02-29, 00:30:05,VALID,915.796,VALID,0,VALID,97.7627,VALID,0,VALID,19.4313,VALID,358,VALID,0.313281,
2012-02-29, 00:31:05,VALID,915.777,VALID,0,VALID,97.7551,VALID,0,VALID,19.4298,VALID,358,VALID,0.354297,
2012-02-29, 00:32:05,VALID,915.748,VALID,0.2,VALID,97.7627,VALID,0,VALID,19.4508,VALID,357,VALID,0.843359,
2012-02-29, 00:33:05,VALID,915.734,VALID,0,VALID,97.7474,VALID,0,VALID,19.4703,VALID,358,VALID,0.741797,
2012-02-29, 00:34:05,VALID,915.736,VALID,0,VALID,97.7551,VALID,0,VALID,19.4703,VALID,358,VALID,0.714063,
2012-02-29, 00:35:05,VALID,915.708,VALID,0,VALID,97.7703,VALID,0,VALID,19.4493,VALID,357,VALID,1.25703,
2012-02-29, 00:36:05,VALID,915.723,VALID,0,VALID,97.7627,VALID,0,VALID,19.4703,VALID,357,VALID,0.780859,
2012-02-29, 00:37:05,VALID,915.683,VALID,0.2,VALID,97.7627,VALID,0,VALID,19.4508,VALID,358,VALID,0.960156,
2012-02-29, 00:38:05,VALID,915.663,VALID,0,VALID,97.7551,VALID,0,VALID,19.4703,VALID,358,VALID,1.07266,
2012-02-29, 00:39:05,VALID,915.664,VALID,0,VALID,97.7474,VALID,0,VALID,19.4508,VALID,358,VALID,1.16562,
2012-02-29, 00:40:05,VALID,915.666,VALID,0,VALID,97.7703,VALID,0,VALID,19.4313,VALID,358,VALID,1.18398,
2012-02-29, 00:41:05,VALID,915.604,VALID,0,VALID,97.7627,VALID,0,VALID,19.4313,VALID,358,VALID,1.4332,
2012-02-29, 00:42:05,VALID,915.628,VALID,0,VALID,97.7398,VALID,0,VALID,19.4313,VALID,357,VALID,1.11758,
2012-02-29, 00:43:05,VALID,915.64,VALID,0.2,VALID,97.7474,VALID,0,VALID,19.4313,VALID,357,VALID,0.573828,
2012-02-29, 00:44:05,VALID,915.641,VALID,0,VALID,97.7474,VALID,0,VALID,19.4298,VALID,357,VALID,0.933984,
2012-02-29, 00:45:05,VALID,915.619,VALID,0,VALID,97.7627,VALID,0,VALID,19.4298,VALID,357,VALID,0.944141,
2012-02-29, 00:46:05,VALID,915.633,VALID,0,VALID,97.7474,VALID,0,VALID,19.4688,VALID,357,VALID,1.14805,
2012-02-29, 00:47:05,VALID,915.605,VALID,0.2,VALID,97.7627,VALID,0,VALID,19.4883,VALID,357,VALID,1.1,
2012-02-29, 00:48:05,VALID,915.619,VALID,0,VALID,97.7627,VALID,0,VALID,19.4298,VALID,19,VALID,1.3043,
2012-02-29, 00:49:05,VALID,915.62,VALID,0,VALID,97.7398,VALID,0,VALID,19.3908,VALID,3,VALID,2.00859,
2012-02-29, 00:50:05,VALID,915.616,VALID,0.2,VALID,97.7551,VALID,0,VALID,19.3713,VALID,2,VALID,1.90547,
2012-02-29, 00:51:05,VALID,915.608,VALID,0,VALID,97.7703,VALID,0,VALID,19.4103,VALID,4,VALID,1.08359,
2012-02-29, 00:52:05,VALID,915.585,VALID,0,VALID,97.7779,VALID,0,VALID,19.4298,VALID,4,VALID,0.683594,
2012-02-29, 00:53:05,VALID,915.588,VALID,0.2,VALID,97.7627,VALID,0,VALID,19.4103,VALID,359,VALID,0.837891,
2012-02-29, 00:54:05,VALID,915.584,VALID,0,VALID,97.7551,VALID,0,VALID,19.4298,VALID,360,VALID,1.20898,
2012-02-29, 00:55:05,VALID,915.565,VALID,0,VALID,97.7703,VALID,0,VALID,19.4298,VALID,360,VALID,0.973047,
2012-02-29, 00:56:05,VALID,915.574,VALID,0.2,VALID,97.7627,VALID,0,VALID,19.4298,VALID,322,VALID,1.31484,
2012-02-29, 00:57:05,VALID,915.552,VALID,0,VALID,97.7703,VALID,0,VALID,19.4493,VALID,24,VALID,1.31328,
2012-02-29, 00:58:05,VALID,915.561,VALID,0,VALID,97.7779,VALID,0,VALID,19.4493,VALID,18,VALID,1.04648,
2012-02-29, 00:59:05,VALID,915.537,VALID,0.2,VALID,97.7779,VALID,0,VALID,19.4493,VALID,18,VALID,1.39805,
2012-02-29, 01:00:05,VALID,915.532,VALID,0,VALID,97.7703,VALID,0,VALID,19.4283,VALID,18,VALID,1.31328,
2012-02-29, 01:01:05,VALID,915.524,VALID,0.2,VALID,97.7779,VALID,0,VALID,19.4088,VALID,18,VALID,0.853125,
2012-02-29, 01:02:05,VALID,915.524,VALID,0,VALID,97.7779,VALID,0,VALID,19.4298,VALID,17,VALID,1.70391,
2012-02-29, 01:03:05,VALID,915.516,VALID,0,VALID,97.7779,VALID,0,VALID,19.4298,VALID,31,VALID,1.79727,
2012-02-29, 01:04:05,VALID,915.528,VALID,0.2,VALID,97.7703,VALID,0,VALID,19.4298,VALID,17,VALID,1.24766,
2012-02-29, 01:05:05,VALID,915.497,VALID,0,VALID,97.7856,VALID,0,VALID,19.4493,VALID,17,VALID,1.08594,
2012-02-29, 01:06:05,VALID,915.512,VALID,0,VALID,97.7779,VALID,0,VALID,19.4493,VALID,17,VALID,0.896484,
2012-02-29, 01:07:05,VALID,915.468,VALID,0.2,VALID,97.7932,VALID,0,VALID,19.4688,VALID,17,VALID,0.744141,
2012-02-29, 01:08:05,VALID,915.466,VALID,0,VALID,97.7627,VALID,0,VALID,19.4688,VALID,7,VALID,1.47539,
2012-02-29, 01:09:05,VALID,915.481,VALID,0.2,VALID,97.7932,VALID,0,VALID,19.4298,VALID,359,VALID,0.941016,
2012-02-29, 01:10:05,VALID,915.43,VALID,0,VALID,97.8008,VALID,0,VALID,19.4298,VALID,359,VALID,1.36563,
2012-02-29, 01:11:05,VALID,915.423,VALID,0,VALID,97.7779,VALID,0,VALID,19.4688,VALID,359,VALID,0.726172,
2012-02-29, 01:12:05,VALID,915.431,VALID,0.2,VALID,97.7779,VALID,0,VALID,19.4688,VALID,9,VALID,1.27422,
2012-02-29, 01:13:05,VALID,915.474,VALID,0,VALID,97.7932,VALID,0,VALID,19.4298,VALID,308,VALID,1.27422,
2012-02-29, 01:14:05,VALID,915.447,VALID,0.2,VALID,97.7856,VALID,0,VALID,19.4298,VALID,6,VALID,1.15547,
2012-02-29, 01:15:05,VALID,915.43,VALID,0,VALID,97.7856,VALID,0,VALID,19.4283,VALID,28,VALID,1.80039,
2012-02-29, 01:16:05,VALID,915.426,VALID,0.2,VALID,97.7856,VALID,0,VALID,19.4493,VALID,16,VALID,1.49961,
2012-02-29, 01:17:05,VALID,915.437,VALID,0,VALID,97.8084,VALID,0,VALID,19.4493,VALID,13,VALID,1.15117,
2012-02-29, 01:18:05,VALID,915.419,VALID,0.2,VALID,97.7856,VALID,0,VALID,19.4688,VALID,37,VALID,1.17305,
2012-02-29, 01:19:05,VALID,915.417,VALID,0,VALID,97.7779,VALID,0,VALID,19.4688,VALID,37,VALID,0.925391,
2012-02-29, 01:20:05,VALID,915.424,VALID,0.2,VALID,97.7856,VALID,0,VALID,19.4688,VALID,9,VALID,1.06836,
2012-02-29, 01:21:05,VALID,915.38,VALID,0,VALID,97.7856,VALID,0,VALID,19.4088,VALID,22,VALID,1.32148,
2012-02-29, 01:22:05,VALID,915.372,VALID,0.2,VALID,97.7932,VALID,0,VALID,19.4298,VALID,12,VALID,1.17227,
2012-02-29, 01:23:05,VALID,915.391,VALID,0,VALID,97.8008,VALID,0,VALID,19.4508,VALID,21,VALID,1.54648,
2012-02-29, 01:24:05,VALID,915.345,VALID,0.2,VALID,97.7932,VALID,0,VALID,19.4298,VALID,24,VALID,1.56758,
2012-02-29, 01:25:05,VALID,915.329,VALID,0,VALID,97.7932,VALID,0,VALID,19.4283,VALID,33,VALID,1.56914,
2012-02-29, 01:26:05,VALID,915.351,VALID,0.2,VALID,97.8084,VALID,0,VALID,19.4493,VALID,15,VALID,1.48594,
2012-02-29, 01:27:05,VALID,915.327,VALID,0,VALID,97.7932,VALID,0,VALID,19.4103,VALID,22,VALID,1.55234,
2012-02-29, 01:28:05,VALID,915.34,VALID,0.2,VALID,97.7932,VALID,0,VALID,19.4298,VALID,354,VALID,1.72227,
2012-02-29, 01:29:05,VALID,915.336,VALID,0,VALID,97.7779,VALID,0,VALID,19.4283,VALID,24,VALID,0.800781,
2012-02-29, 01:30:05,VALID,915.326,VALID,0.2,VALID,97.7932,VALID,0,VALID,19.4493,VALID,24,VALID,0.871094,
2012-02-29, 01:31:05,VALID,915.343,VALID,0,VALID,97.7932,VALID,0,VALID,19.4478,VALID,26,VALID,0.932422,
2012-02-29, 01:32:05,VALID,915.349,VALID,0.2,VALID,97.816,VALID,0,VALID,19.4283,VALID,30,VALID,1.34453,
2012-02-29, 01:33:05,VALID,915.343,VALID,0,VALID,97.816,VALID,0,VALID,19.3893,VALID,10,VALID,1.02891,
2012-02-29, 01:34:05,VALID,915.346,VALID,0.2,VALID,97.8313,VALID,0.107441,VALID,19.4103,VALID,22,VALID,1.72969,
2012-02-29, 01:35:05,VALID,915.312,VALID,0,VALID,97.8008,VALID,0.107441,VALID,19.3908,VALID,38,VALID,1.97227,
2012-02-29, 01:36:05,VALID,915.347,VALID,0.2,VALID,97.7932,VALID,0,VALID,19.3698,VALID,6,VALID,1.51992,
2012-02-29, 01:37:05,VALID,915.299,VALID,0,VALID,97.816,VALID,0,VALID,19.3698,VALID,16,VALID,1.35469,
2012-02-29, 01:38:05,VALID,915.284,VALID,0.2,VALID,97.816,VALID,0,VALID,19.3698,VALID,29,VALID,1.31797,
2012-02-29, 01:39:05,VALID,915.307,VALID,0,VALID,97.8008,VALID,0.107441,VALID,19.3503,VALID,350,VALID,1.98867,
2012-02-29, 01:40:05,VALID,915.253,VALID,0,VALID,97.8084,VALID,0,VALID,19.3113,VALID,18,VALID,1.56719,
2012-02-29, 01:41:05,VALID,915.232,VALID,0.2,VALID,97.8008,VALID,0.107441,VALID,19.3113,VALID,22,VALID,1.54219,
2012-02-29, 01:42:05,VALID,915.265,VALID,0,VALID,97.8237,VALID,0,VALID,19.3113,VALID,31,VALID,1.41836,
2012-02-29, 01:43:05,VALID,915.257,VALID,0.2,VALID,97.816,VALID,0.107441,VALID,19.2918,VALID,7,VALID,1.48281,
2012-02-29, 01:44:05,VALID,915.252,VALID,0,VALID,97.8237,VALID,0,VALID,19.2918,VALID,27,VALID,0.901563,
2012-02-29, 01:45:05,VALID,915.242,VALID,0,VALID,97.816,VALID,0,VALID,19.3113,VALID,27,VALID,0.946484,
2012-02-29, 01:46:05,VALID,915.232,VALID,0.2,VALID,97.8237,VALID,0.107441,VALID,19.3518,VALID,22,VALID,1.13867,
2012-02-29, 01:47:05,VALID,915.235,VALID,0,VALID,97.8237,VALID,0,VALID,19.3113,VALID,26,VALID,1.26406,
2012-02-29, 01:48:05,VALID,915.19,VALID,0.2,VALID,97.8389,VALID,0.107441,VALID,19.3503,VALID,33,VALID,1.58164,
2012-02-29, 01:49:05,VALID,915.21,VALID,0,VALID,97.8313,VALID,0,VALID,19.3113,VALID,32,VALID,1.57344,
2012-02-29, 01:50:05,VALID,915.196,VALID,0.2,VALID,97.816,VALID,0,VALID,19.3323,VALID,22,VALID,1.66797,
2012-02-29, 01:51:05,VALID,915.211,VALID,0.2,VALID,97.8389,VALID,0,VALID,19.3128,VALID,29,VALID,0.905859,
2012-02-29, 01:52:05,VALID,915.188,VALID,0,VALID,97.8313,VALID,0,VALID,19.2933,VALID,28,VALID,1.98867,
2012-02-29, 01:53:05,VALID,915.159,VALID,0.2,VALID,97.8389,VALID,0.107441,VALID,19.2933,VALID,38,VALID,1.62148,
2012-02-29, 01:54:05,VALID,915.17,VALID,0,VALID,97.8237,VALID,0,VALID,19.2738,VALID,21,VALID,1.72695,
2012-02-29, 01:55:05,VALID,915.181,VALID,0.2,VALID,97.8389,VALID,0,VALID,19.2528,VALID,22,VALID,1.48516,
2012-02-29, 01:56:05,VALID,915.194,VALID,0.2,VALID,97.8389,VALID,0,VALID,19.2543,VALID,27,VALID,1.90156,
2012-02-29, 01:57:05,VALID,915.186,VALID,0,VALID,97.8313,VALID,0,VALID,19.2348,VALID,17,VALID,1.55742,
2012-02-29, 01:58:05,VALID,915.184,VALID,0.2,VALID,97.8389,VALID,0,VALID,19.2153,VALID,18,VALID,1.18711,
2012-02-29, 01:59:05,VALID,915.173,VALID,0,VALID,97.8389,VALID,0,VALID,19.2348,VALID,23,VALID,1.31758,
2012-02-29, 02:00:05,VALID,915.16,VALID,0.4,VALID,97.8313,VALID,0,VALID,19.2139,VALID,30,VALID,1.53086,
2012-02-29, 02:01:05,VALID,915.18,VALID,0.2,VALID,97.8618,VALID,0,VALID,19.2153,VALID,24,VALID,1.02148,
2012-02-29, 02:02:05,VALID,915.173,VALID,0.2,VALID,97.8389,VALID,0,VALID,19.1944,VALID,24,VALID,1.14023,
2012-02-29, 02:03:05,VALID,915.156,VALID,0.2,VALID,97.8542,VALID,0,VALID,19.2139,VALID,24,VALID,0.788672,
2012-02-29, 02:04:05,VALID,915.142,VALID,0,VALID,97.8389,VALID,0,VALID,19.2153,VALID,26,VALID,1.03672,
2012-02-29, 02:05:05,VALID,915.124,VALID,0.2,VALID,97.8389,VALID,0,VALID,19.1944,VALID,359,VALID,1.19219,
2012-02-29, 02:06:05,VALID,915.109,VALID,0.2,VALID,97.8389,VALID,0,VALID,19.1763,VALID,38,VALID,1.57148,
2012-02-29, 02:07:05,VALID,915.093,VALID,0.2,VALID,97.8542,VALID,0,VALID,19.1763,VALID,29,VALID,0.899219,
2012-02-29, 02:08:05,VALID,915.074,VALID,0.2,VALID,97.8465,VALID,0,VALID,19.1568,VALID,274,VALID,1.05859,
2012-02-29, 02:09:05,VALID,915.072,VALID,0.2,VALID,97.877,VALID,0.107441,VALID,19.1373,VALID,2,VALID,1.26133,
2012-02-29, 02:10:05,VALID,915.073,VALID,0,VALID,97.877,VALID,0,VALID,19.1178,VALID,7,VALID,1.20547,
2012-02-29, 02:11:05,VALID,915.07,VALID,0.2,VALID,97.8465,VALID,0,VALID,19.0788,VALID,8,VALID,1.05898,
2012-02-29, 02:12:05,VALID,915.089,VALID,0.2,VALID,97.8542,VALID,0,VALID,19.0788,VALID,7,VALID,1.51055,
2012-02-29, 02:13:05,VALID,915.059,VALID,0,VALID,97.8618,VALID,0,VALID,19.0969,VALID,7,VALID,1.00039,
2012-02-29, 02:14:05,VALID,915.057,VALID,0.2,VALID,97.8694,VALID,0,VALID,19.0774,VALID,9,VALID,1.51563,
2012-02-29, 02:15:05,VALID,915.063,VALID,0,VALID,97.8465,VALID,0,VALID,19.0774,VALID,4,VALID,1.61094,
2012-02-29, 02:16:05,VALID,915.045,VALID,0.2,VALID,97.8847,VALID,0.107441,VALID,19.0788,VALID,26,VALID,1.7457,
2012-02-29, 02:17:05,VALID,915.052,VALID,0,VALID,97.8847,VALID,0,VALID,19.0398,VALID,15,VALID,2.00117,
2012-02-29, 02:18:05,VALID,915.048,VALID,0.2,VALID,97.8618,VALID,0.107441,VALID,18.9994,VALID,8,VALID,1.71641,
2012-02-29, 02:19:05,VALID,915.031,VALID,0,VALID,97.8847,VALID,0,VALID,19.0398,VALID,12,VALID,1.06992,
2012-02-29, 02:20:05,VALID,915.034,VALID,0.2,VALID,97.8847,VALID,0,VALID,19.0189,VALID,33,VALID,0.669922,
2012-02-29, 02:21:05,VALID,915.01,VALID,0.2,VALID,97.8694,VALID,0.107441,VALID,19.0008,VALID,12,VALID,1.69102,
2012-02-29, 02:22:05,VALID,914.979,VALID,0,VALID,97.877,VALID,0,VALID,19.0398,VALID,8,VALID,0.8125,
2012-02-29, 02:23:05,VALID,914.958,VALID,0.2,VALID,97.8923,VALID,0.107441,VALID,19.0189,VALID,357,VALID,0.8875,
2012-02-29, 02:24:05,VALID,914.95,VALID,0,VALID,97.8923,VALID,0,VALID,18.9799,VALID,19,VALID,1.71523,
2012-02-29, 02:25:05,VALID,914.954,VALID,0.2,VALID,97.877,VALID,0,VALID,18.9814,VALID,13,VALID,1.98047,
2012-02-29, 02:26:05,VALID,914.964,VALID,0.2,VALID,97.8847,VALID,0,VALID,18.9619,VALID,11,VALID,1.27227,
2012-02-29, 02:27:05,VALID,914.924,VALID,0.2,VALID,97.8618,VALID,0,VALID,18.9214,VALID,346,VALID,1.40625,
2012-02-29, 02:28:05,VALID,914.898,VALID,0.2,VALID,97.8847,VALID,0,VALID,18.9229,VALID,359,VALID,1.23125,
2012-02-29, 02:29:05,VALID,914.891,VALID,0,VALID,97.8847,VALID,0,VALID,18.9229,VALID,27,VALID,2.54961,
2012-02-29, 02:30:04,VALID,914.898,VALID,0.2,VALID,97.8923,VALID,0,VALID,18.9214,VALID,21,VALID,1.03047,
2012-02-29, 02:31:04,VALID,914.887,VALID,0.2,VALID,97.8847,VALID,0,VALID,18.9424,VALID,22,VALID,2.07891,
2012-02-29, 02:32:04,VALID,914.857,VALID,0.2,VALID,97.8999,VALID,0,VALID,18.9229,VALID,15,VALID,2.13398,
2012-02-29, 02:33:04,VALID,914.873,VALID,0,VALID,97.8999,VALID,0,VALID,18.8839,VALID,23,VALID,1.86016,
2012-02-29, 02:34:04,VALID,914.895,VALID,0.2,VALID,97.8847,VALID,0,VALID,18.824,VALID,344,VALID,1.70547,
2012-02-29, 02:35:04,VALID,914.861,VALID,0.2,VALID,97.877,VALID,0,VALID,18.7864,VALID,13,VALID,2.86211,
2012-02-29, 02:36:04,VALID,914.877,VALID,0,VALID,97.8999,VALID,0,VALID,18.7864,VALID,24,VALID,1.56133,
2012-02-29, 02:37:04,VALID,914.879,VALID,0.2,VALID,97.877,VALID,0,VALID,18.7084,VALID,24,VALID,2.0418,
2012-02-29, 02:38:04,VALID,914.866,VALID,0.2,VALID,97.8999,VALID,0,VALID,18.6889,VALID,8,VALID,1.20469,
2012-02-29, 02:39:04,VALID,914.877,VALID,0.2,VALID,97.9075,VALID,0,VALID,18.7084,VALID,6,VALID,1.53008,
2012-02-29, 02:40:04,VALID,914.845,VALID,0,VALID,97.8999,VALID,0,VALID,18.6304,VALID,2,VALID,2.26523,
2012-02-29, 02:41:04,VALID,914.839,VALID,0.2,VALID,97.9075,VALID,0,VALID,18.5914,VALID,14,VALID,2.23516,
2012-02-29, 02:42:04,VALID,914.844,VALID,0.2,VALID,97.9152,VALID,0,VALID,18.6109,VALID,355,VALID,1.4418,
2012-02-29, 02:43:04,VALID,914.856,VALID,0,VALID,97.8923,VALID,0,VALID,18.5705,VALID,345,VALID,1.87656,
2012-02-29, 02:44:04,VALID,914.841,VALID,0.2,VALID,97.9228,VALID,0,VALID,18.5914,VALID,13,VALID,2.1082,
2012-02-29, 02:45:04,VALID,914.857,VALID,0.2,VALID,97.9304,VALID,0,VALID,18.5914,VALID,26,VALID,1.83438,
2012-02-29, 02:46:04,VALID,914.863,VALID,0,VALID,97.9152,VALID,0,VALID,18.572,VALID,349,VALID,1.99336,
2012-02-29, 02:47:04,VALID,914.853,VALID,0.2,VALID,97.938,VALID,0,VALID,18.572,VALID,3,VALID,1.42891,
2012-02-29, 02:48:04,VALID,914.825,VALID,0.2,VALID,97.9304,VALID,0,VALID,18.494,VALID,336,VALID,2.69219,
2012-02-29, 02:49:04,VALID,914.835,VALID,0,VALID,97.9456,VALID,0,VALID,18.5135,VALID,42,VALID,1.3125,
2012-02-29, 02:50:04,VALID,914.781,VALID,0.2,VALID,97.9304,VALID,0,VALID,18.4954,VALID,4,VALID,2.19961,
2012-02-29, 02:51:04,VALID,914.807,VALID,0,VALID,97.9152,VALID,0,VALID,18.455,VALID,350,VALID,1.87461,
2012-02-29, 02:52:04,VALID,914.785,VALID,0.2,VALID,97.9228,VALID,0,VALID,18.4174,VALID,11,VALID,1.96563,
2012-02-29, 02:53:04,VALID,914.772,VALID,0,VALID,97.938,VALID,0,VALID,18.3965,VALID,351,VALID,1.53477,
2012-02-29, 02:54:04,VALID,914.739,VALID,0.2,VALID,97.9533,VALID,0,VALID,18.3979,VALID,359,VALID,2.44375,
2012-02-29, 02:55:04,VALID,914.726,VALID,0,VALID,97.9152,VALID,0,VALID,18.338,VALID,15,VALID,1.77852,
2012-02-29, 02:56:04,VALID,914.742,VALID,0,VALID,97.9456,VALID,0,VALID,18.377,VALID,19,VALID,1.7668,
2012-02-29, 02:57:04,VALID,914.754,VALID,0.2,VALID,97.938,VALID,0,VALID,18.416,VALID,33,VALID,1.60156,
2012-02-29, 02:58:04,VALID,914.693,VALID,0.2,VALID,97.9228,VALID,0,VALID,18.377,VALID,14,VALID,2.33945,
2012-02-29, 02:59:04,VALID,914.719,VALID,0,VALID,97.9304,VALID,0,VALID,18.3199,VALID,347,VALID,1.70664,
2012-02-29, 03:00:04,VALID,914.674,VALID,0,VALID,97.938,VALID,0,VALID,18.1445,VALID,12,VALID,1.78711,
2012-02-29, 03:01:04,VALID,914.655,VALID,0.2,VALID,97.8999,VALID,0,VALID,18.0067,VALID,22,VALID,2.63984,
2012-02-29, 03:02:04,VALID,914.678,VALID,0,VALID,97.9075,VALID,0,VALID,18.008,VALID,13,VALID,2.36719,
2012-02-29, 03:03:04,VALID,914.649,VALID,0.2,VALID,97.8999,VALID,0,VALID,17.9301,VALID,7,VALID,2.27187,
2012-02-29, 03:04:04,VALID,914.656,VALID,0,VALID,97.8923,VALID,0,VALID,17.9287,VALID,6,VALID,1.30234,
2012-02-29, 03:05:04,VALID,914.592,VALID,0.2,VALID,97.9304,VALID,0,VALID,17.9092,VALID,25,VALID,2.1043,
2012-02-29, 03:06:04,VALID,914.565,VALID,0,VALID,97.9152,VALID,0,VALID,17.9092,VALID,354,VALID,1.57109,
2012-02-29, 03:07:04,VALID,914.593,VALID,0.2,VALID,97.9304,VALID,0,VALID,17.9092,VALID,354,VALID,1.26914,
2012-02-29, 03:08:04,VALID,914.557,VALID,0,VALID,97.9228,VALID,0,VALID,17.9301,VALID,340,VALID,1.63203,
2012-02-29, 03:09:04,VALID,914.542,VALID,0,VALID,97.9609,VALID,0,VALID,17.8897,VALID,24,VALID,1.74023,
2012-02-29, 03:10:04,VALID,914.556,VALID,0.2,VALID,97.9609,VALID,0,VALID,17.9287,VALID,334,VALID,1.87383,
2012-02-29, 03:11:04,VALID,914.529,VALID,0,VALID,97.9533,VALID,0,VALID,17.8702,VALID,353,VALID,2.11914,
2012-02-29, 03:12:04,VALID,914.516,VALID,0,VALID,97.9609,VALID,0,VALID,17.8508,VALID,352,VALID,1.51172,
2012-02-29, 03:13:04,VALID,914.494,VALID,0.2,VALID,97.9685,VALID,0,VALID,17.8716,VALID,5,VALID,1.32422,
2012-02-29, 03:14:04,VALID,914.454,VALID,0,VALID,97.999,VALID,0,VALID,17.9092,VALID,5,VALID,1.86055,
2012-02-29, 03:15:04,VALID,914.437,VALID,0,VALID,97.9761,VALID,0,VALID,17.8689,VALID,5,VALID,0.917969,
2012-02-29, 03:16:04,VALID,914.42,VALID,0,VALID,97.999,VALID,0.107441,VALID,17.8494,VALID,5,VALID,1.20234,
2012-02-29, 03:17:04,VALID,914.421,VALID,0.2,VALID,98.0066,VALID,0,VALID,17.8494,VALID,18,VALID,1.15469,
2012-02-29, 03:18:04,VALID,914.372,VALID,0,VALID,97.9838,VALID,0,VALID,17.8299,VALID,27,VALID,0.954687,
2012-02-29, 03:19:04,VALID,914.347,VALID,0,VALID,97.999,VALID,0,VALID,17.8299,VALID,27,VALID,1.15586,
2012-02-29, 03:20:04,VALID,914.33,VALID,0,VALID,97.999,VALID,0,VALID,17.8104,VALID,27,VALID,0.778516,
2012-02-29, 03:21:04,VALID,914.317,VALID,0.2,VALID,98.0066,VALID,0.107441,VALID,17.8508,VALID,27,VALID,0.764453,
2012-02-29, 03:22:04,VALID,914.279,VALID,0,VALID,98.0066,VALID,0,VALID,17.8313,VALID,27,VALID,1.00156,
2012-02-29, 03:23:04,VALID,914.259,VALID,0,VALID,98.0219,VALID,0.107441,VALID,17.8702,VALID,27,VALID,0.442969,
2012-02-29, 03:24:04,VALID,914.245,VALID,0,VALID,98.0295,VALID,0,VALID,17.8702,VALID,27,VALID,0.3375,
2012-02-29, 03:25:04,VALID,914.222,VALID,0,VALID,98.0295,VALID,0,VALID,17.8897,VALID,27,VALID,0.125,
2012-02-29, 03:26:04,VALID,914.208,VALID,0.2,VALID,98.0219,VALID,0,VALID,17.8494,VALID,27,VALID,0.364062,
2012-02-29, 03:27:04,VALID,914.174,VALID,0,VALID,98.0371,VALID,0.107441,VALID,17.8313,VALID,27,VALID,0.336719,
2012-02-29, 03:28:04,VALID,914.165,VALID,0,VALID,98.0448,VALID,0.107441,VALID,17.8494,VALID,27,VALID,0,
2012-02-29, 03:29:04,VALID,914.136,VALID,0,VALID,98.0143,VALID,0,VALID,17.8702,VALID,27,VALID,0.375,
2012-02-29, 03:30:04,VALID,914.116,VALID,0,VALID,98.06,VALID,0,VALID,17.8911,VALID,27,VALID,0,
2012-02-29, 03:31:04,VALID,914.097,VALID,0.2,VALID,98.0371,VALID,0,VALID,17.8702,VALID,27,VALID,0,
2012-02-29, 03:32:04,VALID,914.081,VALID,0,VALID,98.0371,VALID,0,VALID,17.8508,VALID,27,VALID,0,
2012-02-29, 03:33:04,VALID,914.044,VALID,0,VALID,98.0448,VALID,0,VALID,17.8508,VALID,27,VALID,0.0527344,
2012-02-29, 03:34:04,VALID,914.011,VALID,0,VALID,98.0371,VALID,0,VALID,17.8508,VALID,27,VALID,0.567969,
2012-02-29, 03:35:04,VALID,913.995,VALID,0,VALID,98.0524,VALID,0,VALID,17.8716,VALID,27,VALID,0.233594,
2012-02-29, 03:36:04,VALID,913.944,VALID,0,VALID,98.0524,VALID,0,VALID,17.8911,VALID,27,VALID,0.0804688,
2012-02-29, 03:37:04,VALID,913.93,VALID,0.2,VALID,98.0448,VALID,0,VALID,17.8508,VALID,27,VALID,0,
2012-02-29, 03:38:04,VALID,913.929,VALID,0,VALID,98.0371,VALID,0,VALID,17.8521,VALID,27,VALID,0.143359,
2012-02-29, 03:39:04,VALID,913.916,VALID,0,VALID,98.0371,VALID,0,VALID,17.8313,VALID,27,VALID,0.386719,
2012-02-29, 03:40:04,VALID,913.853,VALID,0,VALID,98.0524,VALID,0,VALID,17.8118,VALID,27,VALID,0.342578,
2012-02-29, 03:41:04,VALID,913.863,VALID,0,VALID,98.0448,VALID,0,VALID,17.8326,VALID,27,VALID,0.0984375,
2012-02-29, 03:42:04,VALID,913.821,VALID,0,VALID,98.0371,VALID,0,VALID,17.8326,VALID,27,VALID,0.226563,
2012-02-29, 03:43:04,VALID,913.819,VALID,0.2,VALID,98.0676,VALID,0,VALID,17.7923,VALID,27,VALID,0.471094,
2012-02-29, 03:44:04,VALID,913.798,VALID,0,VALID,98.0448,VALID,0,VALID,17.7936,VALID,27,VALID,0.447266,